Weather History for Summerville, SC

Change the Weather History Date:

Tuesday, July 9, 2013

  Actual Average (KCHS) Record (KCHS)
Temperature  
Mean Temperature 80 °F 82 °F  
Max Temperature 89 °F 91 °F 103 °F (1986)
Min Temperature 71 °F 73 °F 59 °F (1972)
Degree Days  
Heating Degree Days 0 0  
Month to date heating degree days 0  
Since 1 June heating degree days 1  
Since 1 July heating degree days 0  
Cooling Degree Days 15 17  
Month to date cooling degree days 150  
Year to date cooling degree days 933  
Since 1 June cooling degree days 571  
Growing Degree Days 30 (Base 50)    
Moisture  
Dew Point 74 °F    
Average Humidity 77    
Maximum Humidity 100    
Minimum Humidity 55    
Precipitation  
Precipitation 0.00 in 0.21 in 2.71 in (2011)
Month to date precipitation 1.86  
Year to date precipitation 23.82  
Sea Level Pressure  
Sea Level Pressure 30.16 in    
Wind  
Wind Speed 2 mph (South)    
Max Wind Speed 9 mph    
Max Gust Speed -    
Visibility 10 miles    
Events Rain    
T = Trace of Precipitation, MM = Missing Value Source: NWS Daily Summary

Daily Weather History Graph

Daily Weather History Graph

Search for Another Location

Airport:

Trip Planner

Search our weather history database for the weather conditions in past years. The results will help you decide how hot, cold, wet, or windy it might be!

Date:

Astronomy

Jul. 09, 2013 Rise Set
Actual Time 6:19 AM EDT 8:32 PM EDT
Civil Twilight 5:51 AM EDT 9:00 PM EDT
Nautical Twilight 5:16 AM EDT 9:35 PM EDT
Astronomical Twilight 4:39 AM EDT 10:12 PM EDT
Moon 7:36 AM EDT (7/9) 9:17 PM EDT (7/9)
Length of Visible Light 15h 09m
Length of Day
14h 12m
New Moon, 2% of the Moon is Illuminated
Jul 9
New Moon
Jul 15
First Quarter
Jul 22
Full
Jul 29
Last Quarter
Aug 6
New

Hourly Weather History & Observations

Time (EDT) Temp. Heat Index Dew Point Humidity Pressure Visibility Wind Dir Wind Speed Gust Speed Precip Events Conditions
1:15 AM 73.4 °F - 73.4 °F 100% 30.18 in 10.0 mi Calm Calm - N/A   Clear
2:55 AM 73.4 °F - 73.4 °F 100% 30.17 in 10.0 mi SE 3.5 mph - N/A   Clear
3:35 AM 71.6 °F - 71.6 °F 100% 30.16 in 10.0 mi Calm Calm - N/A   Clear
4:35 AM 71.6 °F - 71.6 °F 100% 30.17 in 10.0 mi Calm Calm - N/A   Clear
6:15 AM 71.6 °F - 71.6 °F 100% 30.16 in 10.0 mi Calm Calm - N/A   Clear
7:15 AM 73.4 °F - 73.4 °F 100% 30.17 in 10.0 mi Calm Calm - N/A   Mostly Cloudy
7:35 AM 73.4 °F - 73.4 °F 100% 30.18 in 10.0 mi Calm Calm - N/A   Overcast
7:55 AM 75.2 °F - 73.4 °F 94% 30.18 in 10.0 mi Calm Calm - N/A   Overcast
8:15 AM 77.0 °F - 75.2 °F 94% 30.18 in 10.0 mi Calm Calm - N/A   Scattered Clouds
8:35 AM 78.8 °F - 77.0 °F 94% 30.18 in 10.0 mi SW 3.5 mph - N/A   Scattered Clouds
8:55 AM 80.6 °F 87.1 °F 77.0 °F 89% 30.19 in 10.0 mi Calm Calm - N/A   Clear
9:15 AM 80.6 °F 87.1 °F 77.0 °F 89% 30.19 in 10.0 mi SSW 4.6 mph - N/A   Clear
9:35 AM 82.4 °F 89.5 °F 75.2 °F 79% 30.19 in 10.0 mi SSW 4.6 mph - N/A   Clear
9:55 AM 82.4 °F 88.2 °F 73.4 °F 74% 30.20 in 10.0 mi SW 4.6 mph - N/A   Clear
10:15 AM 84.2 °F 90.9 °F 73.4 °F 70% 30.20 in 10.0 mi SW 3.5 mph - N/A   Scattered Clouds
10:35 AM 84.2 °F 90.9 °F 73.4 °F 70% 30.20 in 10.0 mi Calm Calm - N/A   Scattered Clouds
10:55 AM 86.0 °F 93.4 °F 73.4 °F 66% 30.20 in 10.0 mi SSW 4.6 mph - N/A   Scattered Clouds
11:15 AM 86.0 °F 91.8 °F 71.6 °F 62% 30.20 in 10.0 mi WSW 5.8 mph - N/A   Clear
11:35 AM 86.0 °F 93.4 °F 73.4 °F 66% 30.20 in 10.0 mi SSE 5.8 mph - N/A   Scattered Clouds
11:55 AM 87.8 °F 95.6 °F 73.4 °F 62% 30.19 in 10.0 mi South 5.8 mph - N/A   Scattered Clouds
12:15 PM 87.8 °F 95.6 °F 73.4 °F 62% 30.19 in 10.0 mi SE 3.5 mph - N/A   Scattered Clouds
12:35 PM 89.6 °F 96.2 °F 71.6 °F 55% 30.19 in 10.0 mi SE 4.6 mph - N/A   Scattered Clouds
12:55 PM 89.6 °F 98.2 °F 73.4 °F 59% 30.18 in 10.0 mi Calm Calm - N/A   Scattered Clouds
1:15 PM 86.0 °F 96.9 °F 77.0 °F 74% 30.18 in 10.0 mi SSW 4.6 mph - N/A Rain Light Rain
1:35 PM 87.8 °F 99.7 °F 77.0 °F 70% 30.17 in 10.0 mi South 4.6 mph - N/A   Mostly Cloudy
1:55 PM 87.8 °F 97.6 °F 75.2 °F 66% 30.17 in 10.0 mi Calm Calm - N/A   Mostly Cloudy
2:15 PM 84.2 °F 94.1 °F 77.0 °F 79% 30.15 in 10.0 mi South 4.6 mph - N/A Rain Light Rain
2:35 PM 87.8 °F 99.7 °F 77.0 °F 70% 30.15 in 10.0 mi SSE 9.2 mph - N/A   Scattered Clouds
2:55 PM 89.6 °F 98.2 °F 73.4 °F 59% 30.13 in 10.0 mi SSE 6.9 mph - N/A   Scattered Clouds
3:15 PM 89.6 °F 99.8 °F 75.2 °F 62% 30.13 in 10.0 mi SSW 5.8 mph - N/A   Scattered Clouds
3:35 PM 87.8 °F 97.6 °F 75.2 °F 66% 30.12 in 10.0 mi South 5.8 mph - N/A   Mostly Cloudy
3:55 PM 86.0 °F 95.1 °F 75.2 °F 70% 30.12 in 10.0 mi South 3.5 mph - N/A   Scattered Clouds
4:15 PM 87.8 °F 97.6 °F 75.2 °F 66% 30.12 in 10.0 mi SSE 5.8 mph - N/A   Mostly Cloudy
4:35 PM 89.6 °F 98.2 °F 73.4 °F 59% 30.12 in 10.0 mi SSE 8.1 mph - N/A   Mostly Cloudy
4:55 PM 87.8 °F 95.6 °F 73.4 °F 62% 30.11 in 10.0 mi South 4.6 mph - N/A   Scattered Clouds
5:15 PM 86.0 °F 93.4 °F 73.4 °F 66% 30.11 in 10.0 mi South 4.6 mph - N/A   Scattered Clouds
5:35 PM 86.0 °F 93.4 °F 73.4 °F 66% 30.10 in 10.0 mi South 4.6 mph - N/A   Clear
5:55 PM 86.0 °F 93.4 °F 73.4 °F 66% 30.11 in 10.0 mi South 5.8 mph - N/A   Clear
6:35 PM 82.4 °F 87.2 °F 71.6 °F 70% 30.10 in 10.0 mi South 4.6 mph - N/A   Clear
6:55 PM 82.4 °F 87.2 °F 71.6 °F 70% 30.11 in 10.0 mi SSE 3.5 mph - N/A   Clear
7:15 PM 80.6 °F 85.4 °F 73.4 °F 79% 30.12 in 10.0 mi South 4.6 mph - N/A   Clear
8:35 PM 80.6 °F 85.4 °F 73.4 °F 79% 30.11 in 10.0 mi Calm Calm - N/A   Clear
8:55 PM 78.8 °F - 73.4 °F 83% 30.12 in 10.0 mi SE 3.5 mph - N/A   Clear
9:35 PM 78.8 °F - 73.4 °F 83% 30.13 in 10.0 mi SE 3.5 mph - N/A   Clear
11:15 PM 77.0 °F - 75.2 °F 94% 30.14 in 10.0 mi Calm Calm - N/A   Scattered Clouds
11:35 PM 77.0 °F - 75.2 °F 94% 30.15 in 10.0 mi Calm Calm - N/A   Clear
11:55 PM 75.2 °F - 75.2 °F 100% 30.15 in 10.0 mi Calm Calm - N/A   Clear